• En España
  • Lista de países
  • Para 7 días
  • Temperatura del agua
  • Mapa Satelital
  • El tiempo en el mapa
  • Informadores
  • user-avatar
    Iniciar sesión

    Tiempo cada hora Meppel

    Hoy, 24 Septiembre, Domingo

    Tiempo Temperatura Precipitaciones Viento Presión Humedad
    00:00 +12°C° 0 mm 2 mps 767 mmHg 95%
    01:00 +12°C° 0 mm 2 mps 767 mmHg 95%
    02:00 +10°C° 0 mm 2 mps 767 mmHg 95%
    03:00 +11°C° 0 mm 1 mps 767 mmHg 95%
    04:00 +11°C° 0 mm 1 mps 767 mmHg 95%
    05:00 +10°C° 0 mm 2 mps 767 mmHg 95%
    06:00 +10°C° 0 mm 2 mps 767 mmHg 95%
    07:00 +13°C° 0 mm 2 mps 767 mmHg 90%
    08:00 +15°C° 0 mm 2 mps 767 mmHg 84%
    09:00 +17°C° 0 mm 2 mps 767 mmHg 79%
    10:00 +18°C° 0 mm 2 mps 767 mmHg 74%
    11:00 +19°C° 0 mm 2 mps 767 mmHg 69%
    12:00 +20°C° 0 mm 2 mps 767 mmHg 64%
    13:00 +20°C° 0 mm 2 mps 767 mmHg 64%
    14:00 +20°C° 0 mm 2 mps 767 mmHg 64%
    15:00 +20°C° 0 mm 3 mps 767 mmHg 65%
    16:00 +18°C° 0 mm 3 mps 767 mmHg 71%
    17:00 +17°C° 0 mm 3 mps 767 mmHg 78%
    18:00 +14°C° 0 mm 3 mps 767 mmHg 85%
    19:00 +13°C° 0 mm 3 mps 767 mmHg 88%
    20:00 +13°C° 0 mm 3 mps 767 mmHg 91%
    21:00 +13°C° 0 mm 2 mps 767 mmHg 94%
    22:00 +13°C° 0 mm 2 mps 767 mmHg 95%
    23:00 +13°C° 0 mm 2 mps 767 mmHg 96%

    Mañana, 25 Septiembre, Lunes

    Tiempo Temperatura Precipitaciones Viento Presión Humedad
    00:00 +13°C° 0 mm 1 mps 766 mmHg 96%
    01:00 +13°C° 0 mm 2 mps 766 mmHg 97%
    02:00 +12°C° 0 mm 2 mps 766 mmHg 97%
    03:00 +12°C° 0 mm 2 mps 766 mmHg 97%
    04:00 +12°C° 0 mm 2 mps 766 mmHg 97%
    05:00 +12°C° 0 mm 2 mps 765 mmHg 98%
    06:00 +12°C° 0 mm 2 mps 765 mmHg 98%
    07:00 +14°C° 0 mm 2 mps 765 mmHg 93%
    08:00 +14°C° 0 mm 3 mps 765 mmHg 88%
    09:00 +17°C° 0 mm 3 mps 765 mmHg 83%
    10:00 +18°C° 0,1 mm 3 mps 765 mmHg 80%
    11:00 +18°C° 0,1 mm 3 mps 765 mmHg 77%
    12:00 +19°C° 0,1 mm 3 mps 764 mmHg 73%
    13:00 +19°C° 0,3 mm 3 mps 764 mmHg 73%
    14:00 +20°C° 0,3 mm 3 mps 764 mmHg 72%
    15:00 +20°C° 0,3 mm 3 mps 764 mmHg 72%
    16:00 +18°C° 0,3 mm 3 mps 764 mmHg 78%
    17:00 +17°C° 0,3 mm 3 mps 764 mmHg 84%
    18:00 +14°C° 0,3 mm 3 mps 764 mmHg 89%
    19:00 +14°C° 0 mm 3 mps 764 mmHg 91%
    20:00 +13°C° 0 mm 3 mps 764 mmHg 92%
    21:00 +13°C° 0 mm 3 mps 764 mmHg 94%
    22:00 +12°C° 0 mm 3 mps 764 mmHg 95%
    23:00 +12°C° 0 mm 3 mps 764 mmHg 96%

    Pasado mañana, 26 Septiembre, Martes

    Tiempo Temperatura Precipitaciones Viento Presión Humedad
    00:00 +12°C° 0 mm 2 mps 764 mmHg 96%
    01:00 +12°C° 0 mm 2 mps 764 mmHg 97%
    02:00 +12°C° 0 mm 2 mps 764 mmHg 97%
    03:00 +10°C° 0 mm 2 mps 764 mmHg 97%
    04:00 +10°C° 0 mm 2 mps 764 mmHg 97%
    05:00 +10°C° 0 mm 2 mps 764 mmHg 98%
    06:00 +10°C° 0 mm 2 mps 765 mmHg 98%
    07:00 +12°C° 0 mm 2 mps 765 mmHg 94%
    08:00 +14°C° 0 mm 2 mps 765 mmHg 91%
    09:00 +15°C° 0 mm 2 mps 765 mmHg 87%
    10:00 +16°C° 0 mm 2 mps 765 mmHg 83%
    11:00 +17°C° 0 mm 2 mps 765 mmHg 79%
    12:00 +19°C° 0 mm 1 mps 766 mmHg 75%
    13:00 +19°C° 0,1 mm 1 mps 766 mmHg 75%
    14:00 +19°C° 0,1 mm 1 mps 766 mmHg 74%
    15:00 +19°C° 0,1 mm 2 mps 766 mmHg 74%
    16:00 +17°C° 0,2 mm 2 mps 766 mmHg 79%
    17:00 +16°C° 0,2 mm 2 mps 766 mmHg 84%
    18:00 +15°C° 0,2 mm 2 mps 766 mmHg 89%
    19:00 +14°C° 0,1 mm 2 mps 766 mmHg 90%
    20:00 +14°C° 0,1 mm 2 mps 766 mmHg 92%
    21:00 +13°C° 0,1 mm 2 mps 766 mmHg 93%
    22:00 +13°C° 0 mm 2 mps 767 mmHg 93%
    23:00 +13°C° 0 mm 1 mps 767 mmHg 93%

    27 Septiembre, Miércoles

    Tiempo Temperatura Precipitaciones Viento Presión Humedad
    00:00 +13°C° 0 mm 1 mps 767 mmHg 93%
    01:00 +13°C° 0 mm 1 mps 767 mmHg 92%
    02:00 +12°C° 0 mm 1 mps 767 mmHg 92%
    03:00 +12°C° 0 mm 1 mps 767 mmHg 92%
    04:00 +12°C° 0 mm 1 mps 767 mmHg 92%
    05:00 +12°C° 0 mm 1 mps 767 mmHg 92%
    06:00 +12°C° 0 mm 1 mps 767 mmHg 93%
    07:00 +14°C° 0 mm 1 mps 767 mmHg 88%
    08:00 +16°C° 0 mm 2 mps 767 mmHg 82%
    09:00 +18°C° 0 mm 2 mps 768 mmHg 77%
    10:00 +19°C° 0 mm 2 mps 767 mmHg 73%
    11:00 +20°C° 0 mm 2 mps 767 mmHg 68%
    12:00 +21°C° 0 mm 2 mps 767 mmHg 63%
    13:00 +21°C° 0 mm 2 mps 767 mmHg 63%
    14:00 +21°C° 0 mm 2 mps 767 mmHg 62%
    15:00 +21°C° 0 mm 2 mps 767 mmHg 62%
    16:00 +20°C° 0 mm 2 mps 767 mmHg 68%
    17:00 +18°C° 0 mm 2 mps 767 mmHg 73%
    18:00 +17°C° 0 mm 2 mps 767 mmHg 78%
    19:00 +16°C° 0 mm 2 mps 767 mmHg 80%
    20:00 +16°C° 0 mm 2 mps 767 mmHg 81%
    21:00 +14°C° 0 mm 3 mps 767 mmHg 82%
    22:00 +14°C° 0 mm 3 mps 767 mmHg 83%
    23:00 +14°C° 0 mm 3 mps 767 mmHg 85%

    28 Septiembre, Jueves

    Tiempo Temperatura Precipitaciones Viento Presión Humedad
    00:00 +14°C° 0 mm 3 mps 767 mmHg 86%
    01:00 +14°C° 0 mm 3 mps 766 mmHg 85%
    02:00 +14°C° 0 mm 3 mps 766 mmHg 84%
    03:00 +14°C° 0 mm 3 mps 766 mmHg 83%
    04:00 +14°C° 0 mm 3 mps 766 mmHg 84%
    05:00 +14°C° 0 mm 3 mps 766 mmHg 84%
    06:00 +14°C° 0 mm 3 mps 766 mmHg 85%
    07:00 +16°C° 0 mm 3 mps 766 mmHg 82%
    08:00 +17°C° 0 mm 3 mps 766 mmHg 80%
    09:00 +18°C° 0 mm 4 mps 766 mmHg 77%
    10:00 +19°C° 0 mm 3 mps 766 mmHg 75%
    11:00 +19°C° 0 mm 3 mps 766 mmHg 73%
    12:00 +20°C° 0 mm 3 mps 767 mmHg 71%
    13:00 +20°C° 0 mm 3 mps 766 mmHg 70%
    14:00 +21°C° 0 mm 3 mps 766 mmHg 70%
    15:00 +21°C° 0 mm 3 mps 766 mmHg 70%
    16:00 +20°C° 0 mm 2 mps 767 mmHg 73%
    17:00 +19°C° 0 mm 2 mps 767 mmHg 76%
    18:00 +18°C° 0 mm 2 mps 767 mmHg 80%
    19:00 +17°C° 0 mm 2 mps 767 mmHg 80%
    20:00 +17°C° 0 mm 2 mps 767 mmHg 80%
    21:00 +17°C° 0 mm 2 mps 768 mmHg 81%
    22:00 +16°C° 0 mm 2 mps 768 mmHg 83%
    23:00 +16°C° 0 mm 2 mps 767 mmHg 85%

    29 Septiembre, Viernes

    Tiempo Temperatura Precipitaciones Viento Presión Humedad
    00:00 +15°C° 0 mm 2 mps 767 mmHg 87%
    01:00 +15°C° 0 mm 2 mps 767 mmHg 88%
    02:00 +15°C° 0 mm 2 mps 767 mmHg 89%
    03:00 +14°C° 0 mm 2 mps 767 mmHg 90%
    04:00 +14°C° 0 mm 2 mps 767 mmHg 90%
    05:00 +14°C° 0 mm 2 mps 767 mmHg 90%
    06:00 +13°C° 0 mm 3 mps 767 mmHg 91%
    07:00 +16°C° 0 mm 3 mps 767 mmHg 85%
    08:00 +17°C° 0 mm 3 mps 767 mmHg 80%
    09:00 +19°C° 0 mm 3 mps 767 mmHg 74%
    10:00 +20°C° 0 mm 3 mps 767 mmHg 71%
    11:00 +22°C° 0 mm 3 mps 766 mmHg 67%
    12:00 +24°C° 0 mm 3 mps 766 mmHg 64%
    13:00 +24°C° 0 mm 3 mps 766 mmHg 64%
    14:00 +24°C° 0 mm 3 mps 765 mmHg 65%
    15:00 +24°C° 0 mm 3 mps 765 mmHg 66%
    16:00 +22°C° 0 mm 3 mps 765 mmHg 70%
    17:00 +20°C° 0 mm 3 mps 764 mmHg 74%
    18:00 +19°C° 0 mm 3 mps 764 mmHg 78%
    19:00 +18°C° 0 mm 3 mps 764 mmHg 78%
    20:00 +18°C° 0 mm 3 mps 764 mmHg 78%
    21:00 +18°C° 0 mm 4 mps 763 mmHg 79%
    22:00 +17°C° 0 mm 4 mps 763 mmHg 78%
    23:00 +17°C° 0 mm 4 mps 762 mmHg 78%
    Mostrar más